TimeEDT,TemperatureF,Dew PointF,Humidity,Sea Level PressureIn,VisibilityMPH,Wind Direction,Wind SpeedMPH,Gust SpeedMPH,PrecipitationIn,Events,Conditions,WindDirDegrees,DateUTC
12:15 AM,40.1,22.6,50,30.21,10.0,Calm,Calm,-,N/A,,Clear,0,2013-03-28 04:15:00
12:35 AM,40.1,22.5,49,30.21,10.0,Calm,Calm,-,N/A,,Clear,0,2013-03-28 04:35:00
12:55 AM,36.1,24.4,63,30.21,10.0,Calm,Calm,-,N/A,,Clear,0,2013-03-28 04:55:00
1:15 AM,38.3,22.8,54,30.21,10.0,Calm,Calm,-,N/A,,Clear,0,2013-03-28 05:15:00
1:35 AM,38.7,22.5,52,30.21,10.0,Calm,Calm,-,N/A,,Clear,0,2013-03-28 05:35:00
1:55 AM,38.3,22.6,53,30.21,10.0,West,3.5,-,N/A,,Clear,270,2013-03-28 05:55:00
2:15 AM,38.3,23.0,54,30.21,10.0,Calm,Calm,-,N/A,,Clear,0,2013-03-28 06:15:00
2:35 AM,37.9,23.7,57,30.21,10.0,WNW,3.5,-,N/A,,Clear,300,2013-03-28 06:35:00
2:55 AM,37.0,23.9,59,30.20,10.0,Calm,Calm,-,N/A,,Clear,0,2013-03-28 06:55:00
3:15 AM,36.7,23.9,60,30.20,10.0,Calm,Calm,-,N/A,,Clear,0,2013-03-28 07:15:00
3:35 AM,35.6,24.8,65,30.20,10.0,NW,5.8,-,N/A,,Clear,310,2013-03-28 07:35:00
3:55 AM,36.0,24.6,63,30.20,10.0,NW,4.6,-,N/A,,Clear,310,2013-03-28 07:55:00
4:15 AM,35.6,24.8,65,30.20,10.0,West,3.5,-,N/A,,Clear,280,2013-03-28 08:15:00
4:35 AM,35.6,24.8,65,30.20,10.0,Calm,Calm,-,N/A,,Clear,0,2013-03-28 08:35:00
4:55 AM,35.2,24.8,66,30.20,10.0,West,3.5,-,N/A,,Clear,280,2013-03-28 08:55:00
5:15 AM,34.7,24.8,67,30.20,10.0,West,3.5,-,N/A,,Clear,280,2013-03-28 09:15:00
5:35 AM,34.3,24.8,68,30.20,10.0,West,3.5,-,N/A,,Clear,270,2013-03-28 09:35:00
5:55 AM,34.0,24.8,69,30.20,10.0,Calm,Calm,-,N/A,,Clear,0,2013-03-28 09:55:00
6:15 AM,33.8,25.0,70,30.20,10.0,WNW,3.5,-,N/A,,Clear,290,2013-03-28 10:15:00
6:35 AM,33.8,25.3,71,30.20,10.0,West,3.5,-,N/A,,Clear,280,2013-03-28 10:35:00
6:55 AM,33.3,25.3,73,30.20,10.0,West,3.5,-,N/A,,Clear,280,2013-03-28 10:55:00
6:56 AM,33.8,24.8,70,30.20,10.0,West,3.5,-,N/A,,Clear,280,2013-03-28 10:56:00
7:56 AM,35.6,26.6,70,30.22,10.0,WNW,5.8,-,N/A,,Clear,290,2013-03-28 11:56:00
8:56 AM,41.0,28.4,61,30.23,10.0,NW,8.1,-,N/A,,Clear,310,2013-03-28 12:56:00
9:56 AM,46.4,26.6,46,30.23,10.0,NW,8.1,-,N/A,,Clear,320,2013-03-28 13:56:00
10:56 AM,48.2,24.8,40,30.23,10.0,NNW,9.2,18.4,N/A,,Clear,330,2013-03-28 14:56:00
11:56 AM,50.0,23.0,35,30.22,10.0,NNW,11.5,17.3,N/A,,Clear,340,2013-03-28 15:56:00
12:56 PM,51.8,21.2,30,30.20,10.0,NW,6.9,-,N/A,,Clear,320,2013-03-28 16:56:00
1:56 PM,53.6,23.0,30,30.19,10.0,NNW,12.7,19.6,N/A,,Scattered Clouds,340,2013-03-28 17:56:00
2:56 PM,53.6,23.0,30,30.17,10.0,NW,12.7,17.3,N/A,,Scattered Clouds,320,2013-03-28 18:56:00
3:56 PM,57.2,21.2,25,30.15,10.0,WNW,9.2,23.0,N/A,,Scattered Clouds,300,2013-03-28 19:56:00
4:56 PM,57.2,21.2,25,30.15,10.0,WNW,9.2,16.1,N/A,,Scattered Clouds,300,2013-03-28 20:56:00
5:56 PM,55.4,21.2,26,30.16,10.0,NNW,10.4,16.1,N/A,,Partly Cloudy,330,2013-03-28 21:56:00
6:56 PM,53.6,21.2,28,30.17,10.0,NW,3.5,-,N/A,,Clear,310,2013-03-28 22:56:00
7:56 PM,50.0,23.0,35,30.19,10.0,Calm,Calm,-,N/A,,Scattered Clouds,0,2013-03-28 23:56:00
8:56 PM,42.8,28.4,57,30.22,10.0,Calm,Calm,-,N/A,,Clear,0,2013-03-29 00:56:00
9:15 PM,41.2,29.5,63,30.22,10.0,Calm,Calm,-,N/A,,Clear,0,2013-03-29 01:15:00
9:35 PM,39.6,29.3,67,30.23,10.0,Calm,Calm,-,N/A,,Clear,0,2013-03-29 01:35:00
9:55 PM,38.5,30.2,72,30.24,10.0,Calm,Calm,-,N/A,,Clear,0,2013-03-29 01:55:00
9:56 PM,39.2,30.2,70,30.24,10.0,Calm,Calm,-,N/A,,Clear,0,2013-03-29 01:56:00
10:15 PM,36.5,30.7,80,30.25,10.0,Calm,Calm,-,N/A,,Clear,0,2013-03-29 02:15:00
10:35 PM,37.9,29.5,72,30.25,10.0,NW,4.6,-,N/A,,Clear,320,2013-03-29 02:35:00
10:55 PM,43.7,26.6,51,30.26,10.0,NW,3.5,-,N/A,,Clear,310,2013-03-29 02:55:00
11:15 PM,43.9,27.0,51,30.27,10.0,NNW,6.9,-,N/A,,Clear,330,2013-03-29 03:15:00
11:35 PM,40.3,27.3,60,30.28,10.0,NNW,4.6,-,N/A,,Clear,340,2013-03-29 03:35:00
11:55 PM,42.1,27.5,56,30.28,10.0,North,5.8,-,N/A,,Clear,360,2013-03-29 03:55:00